Regional Weather Roundup
Issued by NWS

Home | Current Version | Previous Version | Graphics & Text | Print | Product List | Glossary On
Versions: 1 2 3 4 5 6 7 8 9 10 11 12 13 14 15 16 17 18 19 20 21 22 23 24 25 26 27 28 29 30 31 32 33 34 35 36 37 38 39 40 41 42 43 44 45 46 47 48 49 50
000
ASUS43 KIND 192009
RWRIN

WEATHER ROUNDUP FOR INDIANA
NATIONAL WEATHER SERVICE INDIANAPOLIS IN
300 PM EST THU JAN 19 2017

NOTE: "FAIR" INDICATES FEW OR NO CLOUDS BELOW 12,000 FEET WITH NO
SIGNIFICANT WEATHER AND/OR OBSTRUCTIONS TO VISIBILITY.

* - STATION DOES NOT REPORT WEATHER SUCH AS PRECIPITATION OR FOG.

+ - STATION NOT QUALITY CONTROLLED BY THE NATIONAL WEATHER SERVICE.
    USE DATA WITH CAUTION...ESPECIALLY DEWPOINT AND RELATIVE
    HUMIDITY OBSERVATIONS.

INZ001>003-010>013-019-020-192100-
NORTHWEST INDIANA

CITY           SKY/WX    TMP DP  RH WIND       PRES   REMARKS
GARY /AIRPORT/ CLOUDY    43  36  75 SE9       29.92F HAZE
KNOX *+        PTSUNNY   37  25  60 SE5       29.93S
LA PORTE +     CLOUDY    39  37  93 E6        29.93F FOG
MICHIGAN CITY+ MOSUNNY   39  39 100 SE3       29.93F FOG
MONTICELLO +   CLOUDY    40  36  86 E7        29.90F
RENSSELAER +     N/A     41  37  87 E10       29.89F FOG
VALPARAISO     CLOUDY    40  37  89 E6        29.92F FOG

$$

LMZ046-743>745-192100-
SOUTHERN LAKE MICHIGAN

STATION/POSITION TIME  TEMP    WIND        PRES    WAVE
                       AIR SEA DIR/SP/G            HT
                 (UTC) (F)     (DEG/KT/KT) (MB)    (FT)
BURNS HARBOR     1940   40     160/  6/ 10 1014.2S
MICHIGAN CITY    1940   40     110/  6/  7   N/A

$$

INZ004-005-014>016-021>024-192100-
NORTH CENTRAL INDIANA

CITY           SKY/WX    TMP DP  RH WIND       PRES   REMARKS
ELKHART        CLOUDY    39  36  87 SE7       29.95F FOG
GOSHEN         PTSUNNY   39  33  79 SE9       29.95F
LOGANSPORT +   CLOUDY    39  36  87 E12       29.92F FOG
PERU/GRISSOM   PTSUNNY   40  40  99 E9        29.90F
ROCHESTER +    CLOUDY    41  37  87 SE8       29.93F FOG
SOUTH BEND     CLOUDY    38  35  89 SE9       29.95S FOG
WARSAW +       CLOUDY    37  32  81 E6        29.93F HAZE

$$

INZ006>009-017-018-025>027-192100-
NORTHEAST INDIANA

CITY           SKY/WX    TMP DP  RH WIND       PRES   REMARKS
ANGOLA *+      CLOUDY    36  27  69 SE7       29.95F
AUBURN +       CLOUDY    37  34  87 E7        29.97F HAZE
FORT WAYNE     PTSUNNY   41  35  79 E8        29.94F
HUNTINGTON +   CLOUDY    38  37  93 E3        29.95F
KENDALLVILLE + CLOUDY    37  35  92 SE7       29.96F FOG

$$

INZ028-029-035-036-043>045-051>053-192100-
WEST CENTRAL INDIANA

CITY           SKY/WX    TMP DP  RH WIND       PRES   REMARKS
CRAWFORDSVL +  CLOUDY    42  42 100 E7        29.88F
GREENCASTLE +  CLOUDY    43  41  93 E6        29.87F
LAFAYETTE      CLOUDY    44  39  82 E8        29.89F
TERRE HAUTE    LGT RAIN  45  40  82 E5        29.86S

$$

INZ030>032-037>040-046>048-054>057-064-065-192100-
CENTRAL INDIANA

CITY           SKY/WX    TMP DP  RH WIND       PRES   REMARKS
ANDERSON       SUNNY     43  39  87 SE6       29.92F
CP ATTERBURY + CLOUDY    46  39  76 E5        29.91F
COLUMBUS       CLOUDY    46  43  87 E5        29.91F
FISHERS *+     CLOUDY    43  43 100 SE6       29.89
FRANKFORT +    CLOUDY    46  41  85 SE9       29.91S
GREENWOOD *+   CLOUDY    46  42  84 SE7       29.90F
INDIANAPOLIS   CLOUDY    45  39  79 E10       29.89F
-EAGLE CREEK   CLOUDY    46  37  71 SE8       29.88F
KOKOMO +       CLOUDY    41  38  89 E9        29.92F
MARION +       CLOUDY    41  37  87 E6        29.92F
MT COMFORT *+  CLOUDY    45  39  81 SE6       29.92R
SHELBYVILLE    CLOUDY    47  39  74 E7        29.90F
ZIONSVILLE +   CLOUDY    43  38  85 SE7       29.90F

$$

INZ033-034-041-042-049-050-058-059-192100-
EAST CENTRAL INDIANA

CITY           SKY/WX    TMP DP  RH WIND       PRES   REMARKS
MUNCIE         CLOUDY    45  39  79 SE7       29.92F

$$

INZ060-061-067>069-081>083-085>088-192100-
SOUTHWEST INDIANA

CITY           SKY/WX    TMP DP  RH WIND       PRES   REMARKS
EVANSVILLE     LGT RAIN  49  44  83 E6        29.82F
HUNTINGBURG *+ CLOUDY    52  45  76 E7        29.82F
WASHINGTON +   CLOUDY    49  41  74 E7        29.82F

$$

INZ062-063-066-070>080-084-089>092-192100-
SOUTH CENTRAL AND SOUTHEAST INDIANA

CITY           SKY/WX    TMP DP  RH WIND       PRES   REMARKS
BLOOMINGTON    CLOUDY    47  37  68 E8        29.86F
MADISON *+     CLOUDY    48  41  76 E8        29.92F
NORTH VERNON + CLOUDY    50  37  62 E7        29.92F
SEYMOUR +      CLOUDY    50  41  71 E6        29.89F

$$





USA.gov is the U.S. government's official web portal to all federal, state and local government web resources and services.